Powrót do katalogu

ARIANE 2 DEB

LostGTO
NORAD 33573·DEBRIS·🇫🇷 France

Wystrzelony Jan 27, 1989 z Guiana Space Centre

Loading…

TLE

NieaktualneSource: Space-Track

Epoka: Oct 22, 2018, 14:48 UTC

1 33573U 89006BR  18295.61715389 -.00000265  00000-0 -32437-2 0  9995
2 33573  11.6644  22.1016 7054297 188.8253 353.9701  2.23699176115286

Śledź ARIANE 2 DEB w czasie rzeczywistym z AllMySat

Download on the App Store